Weather History for PARC - November, 2011

Change the Weather History Date:

Monday, November 28, 2011

  Actual Average Record
Temperature  
Mean Temperature -28 °F -  
Max Temperature -20 °F -11 °F 40 °F (1962)
Min Temperature -36 °F -30 °F -45 °F (1990)
Degree Days  
Heating Degree Days 93    
Moisture  
Dew Point -26 °F    
Average Humidity 85    
Maximum Humidity 100    
Minimum Humidity 69    
Precipitation  
Precipitation 0.00 in - - ()
Sea Level Pressure  
Sea Level Pressure 29.58 in    
Wind  
Wind Speed 0 mph (ENE)    
Max Wind Speed 4 mph    
Max Gust Speed -    
Visibility 10 miles    
Events      
Averages and records for this station are not official NWS values.
T = Trace of Precipitation, MM = Missing Value Source: NWS Daily Summary

Daily Weather History Graph

Daily Weather History Graph

Search for Another Location

Airport or City:

Trip Planner

Search our weather history database for the weather conditions in past years. The results will help you decide how hot, cold, wet, or windy it might be!

Date:

Astronomy

Nov. 28, 2011 Rise Set
Actual Time 11:04 AM AKST 1:55 PM AKST
Civil Twilight 9:18 AM AKST 3:40 PM AKST
Nautical Twilight 7:57 AM AKST 5:02 PM AKST
Astronomical Twilight 6:48 AM AKST 6:10 PM AKST
Moon 1:33 PM AKST (11/28) 6:48 PM AKST (11/28)
Length of Visible Light 6h 22m
Length of Day
2h 50m
Waxing Crescent, 17% of the Moon is Illuminated
Nov 28
Waxing Crescent
Dec 2
First Quarter
Dec 10
Full
Dec 17
Last Quarter
Dec 24
New

Hourly Weather History & Observations

Time (AKST) Temp. Windchill Dew Point Humidity Pressure Visibility Wind Dir Wind Speed Gust Speed Precip Events Conditions
12:16 AM - - - N/A% 29.60 in 10.0 mi Calm Calm - N/A   Clear
12:36 AM -34.6 °F - - N/A% 29.61 in 10.0 mi Calm Calm - N/A   Clear
12:56 AM -36.4 °F - - N/A% 29.61 in 9.0 mi Calm Calm - N/A   Clear
1:16 AM -34.6 °F - - N/A% 29.61 in 10.0 mi Calm Calm - N/A   Clear
1:36 AM -32.8 °F - - N/A% 29.61 in 10.0 mi Calm Calm - N/A   Clear
1:56 AM -29.2 °F - - N/A% 29.60 in 10.0 mi Calm Calm - N/A   Clear
2:16 AM -32.8 °F - - N/A% 29.60 in 10.0 mi Calm Calm - N/A   Clear
2:36 AM -36.4 °F - - N/A% 29.59 in 10.0 mi Calm Calm - N/A   Clear
2:56 AM -34.6 °F - - N/A% 29.60 in 10.0 mi Calm Calm - N/A   Clear
3:16 AM -31.0 °F - - N/A% 29.59 in 10.0 mi Calm Calm - N/A   Clear
3:36 AM -29.2 °F - - N/A% 29.59 in 10.0 mi Calm Calm - N/A   Clear
3:56 AM -34.6 °F - - N/A% 29.58 in 10.0 mi Calm Calm - N/A   Clear
4:16 AM -27.4 °F - - N/A% 29.58 in 10.0 mi Calm Calm - N/A   Clear
4:36 AM -27.4 °F - - N/A% 29.57 in 10.0 mi Calm Calm - N/A   Clear
4:56 AM -27.4 °F - - N/A% 29.57 in 10.0 mi Calm Calm - N/A   Clear
5:16 AM -29.2 °F - - N/A% 29.57 in 10.0 mi Calm Calm - N/A   Clear
5:36 AM -27.4 °F - - N/A% 29.56 in 10.0 mi Calm Calm - N/A   Clear
5:56 AM -31.0 °F - - N/A% 29.56 in 10.0 mi Calm Calm - N/A   Clear
6:16 AM -29.2 °F - - N/A% 29.56 in 10.0 mi Calm Calm - N/A   Clear
6:36 AM -29.2 °F - - N/A% 29.56 in 10.0 mi Calm Calm - N/A   Clear
6:56 AM -27.4 °F - - N/A% 29.56 in 10.0 mi Calm Calm - N/A   Clear
7:16 AM -25.6 °F - - N/A% 29.56 in 10.0 mi Calm Calm - N/A   Clear
7:36 AM -29.2 °F - - N/A% 29.56 in 10.0 mi Calm Calm - N/A   Clear
7:56 AM -29.2 °F - - N/A% 29.55 in 10.0 mi Calm Calm - N/A   Clear
8:16 AM -31.0 °F - - N/A% 29.55 in 10.0 mi Calm Calm - N/A   Clear
8:36 AM -29.2 °F -41.2 °F - N/A% 29.54 in 10.0 mi East 3.5 mph - N/A   Clear
8:56 AM -34.6 °F - - N/A% 29.55 in 5.0 mi Calm Calm - N/A   Clear
9:16 AM -25.6 °F - - N/A% 29.55 in 10.0 mi Calm Calm - N/A   Clear
9:36 AM -23.8 °F - -23.8 °F 100% 29.55 in 10.0 mi Calm Calm - N/A   Clear
9:56 AM -25.6 °F - - N/A% 29.56 in 10.0 mi Calm Calm - N/A   Clear
10:16 AM -27.4 °F - - N/A% 29.56 in 10.0 mi Calm Calm - N/A   Clear
10:36 AM -25.6 °F - - N/A% 29.57 in 10.0 mi Calm Calm - N/A   Clear
10:56 AM -29.2 °F - - N/A% 29.58 in 10.0 mi Calm Calm - N/A   Clear
11:16 AM -25.6 °F - -27.4 °F 91% 29.58 in 7.0 mi Calm Calm - N/A   Clear
11:36 AM -27.4 °F - - N/A% 29.58 in 10.0 mi Calm Calm - N/A   Clear
11:56 AM -32.8 °F - - N/A% 29.58 in 10.0 mi Calm Calm - N/A   Clear
12:16 PM -31.0 °F - - N/A% 29.58 in 9.0 mi Calm Calm - N/A   Clear
12:36 PM -29.2 °F - - N/A% 29.58 in 5.0 mi Calm Calm - N/A   Clear
12:56 PM -31.0 °F - - N/A% 29.58 in 5.0 mi Calm Calm - N/A   Clear
1:16 PM -34.6 °F - - N/A% 29.58 in 10.0 mi Calm Calm - N/A   Clear
1:36 PM -32.8 °F - - N/A% 29.58 in 10.0 mi Calm Calm - N/A   Clear
1:56 PM -27.4 °F - - N/A% 29.58 in 10.0 mi Calm Calm - N/A   Clear
2:16 PM -27.4 °F - - N/A% 29.58 in 10.0 mi Calm Calm - N/A   Clear
2:36 PM -25.6 °F - - N/A% 29.58 in 10.0 mi Calm Calm - N/A   Clear
2:56 PM -25.6 °F - -25.6 °F 100% 29.58 in 10.0 mi Calm Calm - N/A   Clear
3:16 PM -25.6 °F - - N/A% 29.57 in 10.0 mi Calm Calm - N/A   Clear
3:36 PM -23.8 °F -35.0 °F - N/A% 29.57 in 10.0 mi ENE 3.5 mph - N/A   Clear
3:56 PM -23.8 °F - - N/A% 29.58 in 9.0 mi Calm Calm - N/A   Clear
4:16 PM -23.8 °F - - N/A% 29.58 in 10.0 mi Calm Calm - N/A   Clear
4:36 PM -22.0 °F - -27.4 °F 76% 29.58 in 10.0 mi Calm Calm - N/A   Clear
4:56 PM -22.0 °F - -27.4 °F 76% 29.58 in 10.0 mi Calm Calm - N/A   Clear
5:16 PM -20.2 °F - - N/A% 29.59 in 10.0 mi Calm Calm - N/A   Clear
5:36 PM -22.0 °F -33.0 °F - N/A% 29.59 in 10.0 mi NNE 3.5 mph - N/A   Clear
5:56 PM -20.2 °F -30.9 °F -27.4 °F 69% 29.59 in 10.0 mi NE 3.5 mph - N/A   Clear
6:16 PM -20.2 °F -30.9 °F - N/A% 29.59 in 10.0 mi ENE 3.5 mph - N/A   Clear
6:36 PM -22.0 °F - - N/A% 29.60 in 9.0 mi Calm Calm - N/A   Clear
6:56 PM -20.2 °F -33.5 °F -23.8 °F 83% 29.60 in 10.0 mi NE 4.6 mph - N/A   Clear
7:16 PM -22.0 °F -35.6 °F - N/A% 29.61 in 10.0 mi NE 4.6 mph - N/A   Scattered Clouds
7:36 PM -23.8 °F -39.8 °F - N/A% 29.61 in 9.0 mi NE 5.8 mph - N/A   Mostly Cloudy
8:16 PM -22.0 °F - -27.4 °F 76% 29.62 in 10.0 mi Calm Calm - N/A   Mostly Cloudy
8:36 PM -22.0 °F - - N/A% 29.63 in 9.0 mi Calm Calm - N/A   Scattered Clouds
8:56 PM -20.2 °F - - N/A% 29.63 in 10.0 mi Calm Calm - N/A   Scattered Clouds
9:16 PM -27.4 °F - - N/A% 29.64 in 10.0 mi Calm Calm - N/A   Partly Cloudy
9:36 PM -22.0 °F - - N/A% 29.64 in 10.0 mi Calm Calm - N/A   Clear
9:56 PM -20.2 °F - -20.2 °F 100% 29.65 in 10.0 mi Calm Calm - N/A   Clear
10:16 PM -20.2 °F - - N/A% 29.65 in 10.0 mi Calm Calm - N/A   Clear
10:36 PM -18.4 °F - - N/A% 29.66 in 10.0 mi Calm Calm - N/A   Clear
10:56 PM -23.8 °F - - N/A% 29.66 in 10.0 mi Calm Calm - N/A   Clear
11:16 PM -20.2 °F -30.9 °F - N/A% 29.67 in 10.0 mi North 3.5 mph - N/A   Clear
11:36 PM -22.0 °F - - N/A% 29.67 in 10.0 mi Calm Calm - N/A   Clear
11:56 PM -18.4 °F - -27.4 °F 63% 29.68 in 10.0 mi Calm Calm - N/A   Clear